Regional Weather Roundup
Issued by NWS

Home | Current Version | Previous Version | Graphics & Text | Print | Product List | Glossary On
Versions: 1 2 3 4 5 6 7 8 9 10 11 12 13 14 15 16 17 18 19 20 21 22 23 24 25 26 27 28 29 30 31 32 33 34 35 36 37 38 39 40 41 42 43 44 45 46 47 48 49 50
000
ASUS43 KIND 230500
RWRIN

WEATHER ROUNDUP FOR INDIANA
NATIONAL WEATHER SERVICE INDIANAPOLIS IN
100 AM EDT MON OCT 23 2017

NOTE: "FAIR" INDICATES FEW OR NO CLOUDS BELOW 12,000 FEET WITH NO
SIGNIFICANT WEATHER AND/OR OBSTRUCTIONS TO VISIBILITY.

* - STATION DOES NOT REPORT WEATHER SUCH AS PRECIPITATION OR FOG.

+ - STATION NOT QUALITY CONTROLLED BY THE NATIONAL WEATHER SERVICE.
    USE DATA WITH CAUTION...ESPECIALLY DEWPOINT AND RELATIVE
    HUMIDITY OBSERVATIONS.

INZ001>003-010>013-019-020-230600-
NORTHWEST INDIANA

CITY           SKY/WX    TMP DP  RH WIND       PRES   REMARKS
KNOX *+        CLOUDY    55  55 100 N5        29.97F
MONTICELLO +   CLOUDY    57  56  95 N5        29.95F

$$

LMZ046-743>745-230600-
SOUTHERN LAKE MICHIGAN

STATION/POSITION TIME  TEMP    WIND        PRES    WAVE
                       AIR SEA DIR/SP/G            HT
                 (UTC) (F)     (DEG/KT/KT) (MB)    (FT)
BURNS HARBOR     0440   56      30/ 12/ 13 1015.9F
MICHIGAN CITY    0430   56      10/ 12/ 13   N/A
5NW MICH CITY    0450   56 58   20/ 10/ 14   N/A     4

$$

INZ004-005-014>016-021>024-230600-
NORTH CENTRAL INDIANA

CITY           SKY/WX    TMP DP  RH WIND       PRES   REMARKS
GOSHEN         CLOUDY    63  59  87 NW3       29.96F
PERU/GRISSOM   CLOUDY    67  54  63 S10       29.94F
SOUTH BEND     CLOUDY    56  56 100 N7        29.98F

$$

INZ006>009-017-018-025>027-230600-
NORTHEAST INDIANA

CITY           SKY/WX    TMP DP  RH WIND       PRES   REMARKS
FORT WAYNE     CLOUDY    66  51  58 S9        29.98F
KENDALLVILLE + CLOUDY    66  53  61 S9        29.98F

$$

INZ028-029-035-036-043>045-051>053-230600-
WEST CENTRAL INDIANA

CITY           SKY/WX    TMP DP  RH WIND       PRES   REMARKS
LAFAYETTE      LGT RAIN  57  56  96 N3        29.94F
TERRE HAUTE    LGT RAIN  61  59  93 CALM      29.92F

$$

INZ030>032-037>040-046>048-054>057-064-065-230600-
CENTRAL INDIANA

CITY           SKY/WX    TMP DP  RH WIND       PRES   REMARKS
GREENWOOD *+   CLOUDY    69  57  64 SE6       29.96F
INDIANAPOLIS   CLOUDY    67  55  65 SE10      29.94F
-EAGLE CREEK   CLOUDY    68  54  60 SE8       29.94F
KOKOMO +       CLOUDY    66  54  65 S9        29.96F
MT COMFORT *+  MOCLDY    66  57  72 S8        29.96F
SHELBYVILLE    CLOUDY    68  53  58 SE13      29.95F

$$

INZ033-034-041-042-049-050-058-059-230600-
EAST CENTRAL INDIANA

CITY           SKY/WX    TMP DP  RH WIND       PRES   REMARKS
MUNCIE         CLOUDY    69  51  52 S9        29.97F
RICHMOND +     CLOUDY    61  50  67 SE7       30.01F

$$

INZ060-061-067>069-081>083-085>088-230600-
SOUTHWEST INDIANA

CITY           SKY/WX    TMP DP  RH WIND       PRES   REMARKS
EVANSVILLE     HVY RAIN  65  63  93 E5        29.89F FOG
HUNTINGBURG +  LGT RAIN  66  63  90 E9        29.91F

$$

INZ062-063-066-070>080-084-089>092-230600-
SOUTH CENTRAL AND SOUTHEAST INDIANA

CITY           SKY/WX    TMP DP  RH WIND       PRES   REMARKS
BLOOMINGTON    CLOUDY    69  56  62 SE9       29.94F
MADISON *+     CLOUDY    68  52  56 SE7       30.00F
SEYMOUR +      CLOUDY    70  55  60 SE10      29.95F

$$





USA.gov is the U.S. government's official web portal to all federal, state and local government web resources and services.